Weather History for PASX - October, 2012

Change the Weather History Date:

Monday, October 29, 2012

  Actual Average Record
Temperature  
Mean Temperature 24 °F -  
Max Temperature 37 °F 35 °F 49 °F (1954)
Min Temperature 12 °F 23 °F -1 °F (1953)
Degree Days  
Heating Degree Days 40    
Moisture  
Dew Point 19 °F    
Average Humidity 83    
Maximum Humidity 93    
Minimum Humidity 65    
Precipitation  
Precipitation 0.00 in - - ()
Sea Level Pressure  
Sea Level Pressure 29.88 in    
Wind  
Wind Speed 4 mph (ENE)    
Max Wind Speed 7 mph    
Max Gust Speed -    
Visibility 10 miles    
Events      
Averages and records for this station are not official NWS values.
T = Trace of Precipitation, MM = Missing Value Source: NWS Daily Summary

Daily Weather History Graph

Daily Weather History Graph

Search for Another Location

Airport or City:

Trip Planner

Search our weather history database for the weather conditions in past years. The results will help you decide how hot, cold, wet, or windy it might be!

Date:

Astronomy

Oct. 29, 2012 Rise Set
Actual Time 9:22 AM AKDT 6:12 PM AKDT
Civil Twilight 8:37 AM AKDT 6:57 PM AKDT
Nautical Twilight 7:47 AM AKDT 7:47 PM AKDT
Astronomical Twilight 6:58 AM AKDT 8:35 PM AKDT
Moon 5:54 PM AKDT 9:34 AM AKDT
Length of Visible Light 10h 20m
Length of Day
8h 49m
Full, 100% of the Moon is Illuminated
Oct 29
Full
Nov 6
Last Quarter
Nov 13
New
Nov 20
First Quarter
Nov 28
Full

Hourly Weather History & Observations

Time (AKDT) Temp. Windchill Dew Point Humidity Pressure Visibility Wind Dir Wind Speed Gust Speed Precip Events Conditions
12:16 AM 15.8 °F 10.2 °F 10.4 °F 79% 29.99 in 10.0 mi ENE 3.5 mph - N/A   Clear
12:36 AM 15.8 °F 8.6 °F 12.2 °F 86% 29.99 in 10.0 mi East 4.6 mph - N/A   Clear
12:56 AM 15.8 °F 8.6 °F 14.0 °F 93% 29.99 in 10.0 mi East 4.6 mph - N/A   Clear
1:16 AM 15.8 °F 10.2 °F 12.2 °F 86% 29.99 in 10.0 mi ENE 3.5 mph - N/A   Clear
1:36 AM 15.8 °F 8.6 °F 12.2 °F 86% 29.99 in 10.0 mi East 4.6 mph - N/A   Clear
1:56 AM 15.8 °F 7.2 °F 12.2 °F 86% 29.99 in 10.0 mi East 5.8 mph - N/A   Clear
2:16 AM 15.8 °F 7.2 °F 12.2 °F 86% 29.98 in 10.0 mi East 5.8 mph - N/A   Clear
2:36 AM 14.0 °F 3.9 °F 10.4 °F 86% 29.98 in 10.0 mi East 6.9 mph - N/A   Clear
2:56 AM 15.8 °F 8.6 °F 12.2 °F 86% 29.98 in 10.0 mi East 4.6 mph - N/A   Clear
3:16 AM 15.8 °F 8.6 °F 12.2 °F 86% 29.98 in 10.0 mi East 4.6 mph - N/A   Clear
3:36 AM 14.0 °F 6.5 °F 12.2 °F 93% 29.98 in 10.0 mi ENE 4.6 mph - N/A   Clear
3:56 AM 12.2 °F - 10.4 °F 92% 29.97 in 10.0 mi Calm Calm - N/A   Clear
4:16 AM 15.8 °F 7.2 °F 12.2 °F 86% 29.96 in 10.0 mi East 5.8 mph - N/A   Clear
4:36 AM 15.8 °F 8.6 °F 12.2 °F 86% 29.96 in 10.0 mi East 4.6 mph - N/A   Clear
4:56 AM 14.0 °F 8.2 °F 10.4 °F 86% 29.96 in 10.0 mi East 3.5 mph - N/A   Clear
5:16 AM 14.0 °F 6.5 °F 12.2 °F 93% 29.95 in 10.0 mi ENE 4.6 mph - N/A   Clear
5:36 AM 12.2 °F 6.1 °F 8.6 °F 85% 29.95 in 10.0 mi East 3.5 mph - N/A   Clear
5:56 AM 14.0 °F 5.1 °F 10.4 °F 86% 29.94 in 10.0 mi East 5.8 mph - N/A   Clear
6:16 AM 12.2 °F 4.3 °F 8.6 °F 85% 29.94 in 10.0 mi ENE 4.6 mph - N/A   Clear
6:36 AM 12.2 °F 1.7 °F 8.6 °F 85% 29.93 in 10.0 mi East 6.9 mph - N/A   Clear
6:56 AM 14.0 °F 3.9 °F 10.4 °F 86% 29.92 in 10.0 mi East 6.9 mph - N/A   Clear
7:16 AM 14.0 °F 3.9 °F 12.2 °F 93% 29.92 in 10.0 mi East 6.9 mph - N/A   Clear
7:36 AM 14.0 °F 5.1 °F 10.4 °F 86% 29.92 in 10.0 mi East 5.8 mph - N/A   Clear
7:56 AM 14.0 °F 3.9 °F 12.2 °F 93% 29.92 in 10.0 mi East 6.9 mph - N/A   Clear
8:16 AM 15.8 °F 6.1 °F 10.4 °F 79% 29.91 in 10.0 mi East 6.9 mph - N/A   Clear
8:36 AM 15.8 °F 6.1 °F 10.4 °F 79% 29.91 in 10.0 mi East 6.9 mph - N/A   Clear
8:56 AM 15.8 °F 7.2 °F 14.0 °F 93% 29.90 in 10.0 mi East 5.8 mph - N/A   Clear
9:36 AM 15.8 °F 6.1 °F 12.2 °F 86% 29.89 in 10.0 mi East 6.9 mph - N/A   Mostly Cloudy
9:56 AM 15.8 °F 7.2 °F 12.2 °F 86% 29.88 in 10.0 mi ENE 5.8 mph - N/A   Overcast
10:16 AM 17.6 °F 9.3 °F 14.0 °F 86% 29.88 in 10.0 mi East 5.8 mph - N/A   Mostly Cloudy
10:36 AM 17.6 °F 9.3 °F 15.8 °F 93% 29.87 in 10.0 mi East 5.8 mph - N/A   Overcast
10:56 AM 19.4 °F 12.8 °F 17.6 °F 93% 29.88 in 10.0 mi ENE 4.6 mph - N/A   Overcast
11:16 AM 19.4 °F 14.3 °F 17.6 °F 93% 29.87 in 10.0 mi ENE 3.5 mph - N/A   Overcast
11:36 AM 21.2 °F 13.6 °F 17.6 °F 86% 29.87 in 10.0 mi ENE 5.8 mph - N/A   Mostly Cloudy
11:56 AM 24.8 °F 19.1 °F 19.4 °F 80% 29.87 in 10.0 mi ENE 4.6 mph - N/A   Partly Cloudy
12:16 PM 26.6 °F 22.6 °F 21.2 °F 80% 29.86 in 10.0 mi ENE 3.5 mph - N/A   Clear
12:36 PM 28.4 °F - 21.2 °F 74% 29.86 in 10.0 mi Calm Calm - N/A   Clear
12:56 PM 30.2 °F - 24.8 °F 80% 29.85 in - Calm Calm - N/A   Partly Cloudy
1:16 PM 33.8 °F - 24.8 °F 70% 29.85 in - Calm Calm - N/A   Mostly Cloudy
1:36 PM 35.6 °F - 26.6 °F 70% 29.84 in 10.0 mi Calm Calm - N/A   Overcast
1:56 PM 37.4 °F 34.9 °F 26.6 °F 65% 29.84 in 10.0 mi NNE 3.5 mph - N/A   Overcast
2:16 PM 37.4 °F - 26.6 °F 65% 29.83 in 10.0 mi Calm Calm - N/A   Overcast
2:36 PM 37.4 °F - 26.6 °F 65% 29.83 in 10.0 mi Calm Calm - N/A   Overcast
2:56 PM 37.4 °F - 26.6 °F 65% 29.83 in 10.0 mi Calm Calm - N/A   Overcast
3:16 PM 37.4 °F 34.9 °F 26.6 °F 65% 29.83 in 10.0 mi WNW 3.5 mph - N/A   Overcast
3:36 PM 37.4 °F 34.9 °F 28.4 °F 70% 29.82 in 10.0 mi NNW 3.5 mph - N/A   Overcast
3:56 PM 37.4 °F - 28.4 °F 70% 29.82 in 10.0 mi Calm Calm - N/A   Overcast
4:16 PM 37.4 °F - 28.4 °F 70% 29.82 in 10.0 mi Calm Calm - N/A   Mostly Cloudy
4:36 PM 37.4 °F - 28.4 °F 70% 29.82 in 10.0 mi Calm Calm - N/A   Overcast
4:56 PM 37.4 °F - 28.4 °F 70% 29.82 in 10.0 mi Calm Calm - N/A   Overcast
5:16 PM 35.6 °F - 28.4 °F 75% 29.81 in 10.0 mi Calm Calm - N/A   Overcast
5:36 PM 35.6 °F - 28.4 °F 75% 29.81 in 10.0 mi Calm Calm - N/A   Overcast
5:56 PM 35.6 °F - 28.4 °F 75% 29.81 in 10.0 mi Calm Calm - N/A   Mostly Cloudy
6:16 PM 35.6 °F - 26.6 °F 70% 29.81 in - Calm Calm - N/A   Partly Cloudy
6:36 PM 32.0 °F - 26.6 °F 80% 29.82 in - Calm Calm - N/A   Clear
6:56 PM 30.2 °F - 24.8 °F 80% 29.81 in - Calm Calm - N/A   Clear
7:16 PM 26.6 °F - 23.0 °F 86% 29.81 in - Calm Calm - N/A   Unknown
7:36 PM 28.4 °F - 24.8 °F 86% 29.81 in - Calm Calm - N/A   Unknown
7:56 PM 24.8 °F - 21.2 °F 86% 29.81 in - Calm Calm - N/A   Unknown
8:16 PM 24.8 °F - 21.2 °F 86% 29.81 in - Calm Calm - N/A   Unknown
8:36 PM 24.8 °F - 21.2 °F 86% 29.81 in - Calm Calm - N/A   Unknown
8:56 PM 24.8 °F - 21.2 °F 86% 29.81 in - Calm Calm - N/A   Unknown
9:16 PM 23.0 °F - 19.4 °F 86% 29.81 in - Calm Calm - N/A   Unknown
9:36 PM 21.2 °F 16.4 °F 19.4 °F 93% 29.81 in - West 3.5 mph - N/A   Mostly Cloudy
9:56 PM 23.0 °F - 21.2 °F 93% 29.81 in - Calm Calm - N/A   Overcast
10:16 PM 23.0 °F - 21.2 °F 93% 29.81 in - Calm Calm - N/A   Overcast
10:36 PM 24.8 °F - 21.2 °F 86% 29.81 in 10.0 mi Calm Calm - N/A   Overcast
10:56 PM 24.8 °F 20.5 °F 21.2 °F 86% 29.80 in - ENE 3.5 mph - N/A   Unknown
11:16 PM 24.8 °F 19.1 °F 23.0 °F 93% 29.80 in 10.0 mi ENE 4.6 mph - N/A   Overcast
11:36 PM 24.8 °F 20.5 °F 23.0 °F 93% 29.79 in 10.0 mi East 3.5 mph - N/A   Overcast
11:56 PM 24.8 °F - 23.0 °F 93% 29.79 in - Calm Calm - N/A   Overcast